Date String (YYYY-MM-DD hh:mm:ss) UTC,Instrument flags,Ambient pressure (hPa),Sample flow (lpm),Bypass flow (lpm),Sample temperature (°C),Ambient temperature (°C),ASC tube jacket temperature (°C),LED temperature (°C),Box temperature (°C),Sample RH (%),Span deviation,Mass concentration (μg/m³),Mass concentration (μg/m³),Mass concentration (μg/m³)
DateTimeUTC,F1_M11,P_M11,Q1_M11,Q2_M11,T1_M11,T2_M11,T3_M11,T4_M11,T5_M11,U1_M11,ZSPAN_M11,X2_M11,X0_M11,X1_M11
2022-05-23 18:00:00,,0824.8,5.00,0.00,29.0,28.0,00.0,37.9,30.8,19.7,0000.0,0003.88,0007.69,0003.55
2022-05-23 18:01:00,,0824.9,5.00,0.00,29.0,28.0,00.0,37.9,30.8,19.6,0000.0,0003.87,0007.71,0003.52
2022-05-23 18:02:00,,0824.9,4.99,0.00,29.0,28.0,00.0,37.9,30.8,18.8,0000.0,0003.82,0007.65,0003.49
2022-05-23 18:03:00,,0824.9,4.99,0.00,29.0,28.0,00.0,37.9,30.8,18.5,0000.0,0003.75,0007.51,0003.46
2022-05-23 18:04:00,,0824.9,5.00,0.00,29.0,28.1,00.0,37.9,30.9,18.7,0000.0,0003.72,0007.45,0003.43
2022-05-23 18:05:00,,0824.9,5.00,0.00,29.0,28.1,00.0,37.9,30.9,18.0,0000.0,0003.66,0007.19,0003.38
2022-05-23 18:06:00,,0824.8,5.01,0.00,29.0,28.1,00.0,37.9,30.8,17.8,0000.0,0003.62,0006.08,0003.34
2022-05-23 18:07:00,,0824.9,5.00,0.00,29.0,28.1,00.0,37.9,30.8,18.0,0000.0,0003.58,0007.01,0003.29
2022-05-23 18:08:00,,0824.9,4.99,0.00,29.0,28.1,00.0,37.9,30.8,18.3,0000.0,0003.57,0006.62,0003.25
2022-05-23 18:09:00,,0824.9,5.01,0.00,29.0,28.1,00.0,38.0,30.8,18.6,0000.0,0003.52,0006.87,0003.21
2022-05-23 18:10:00,,0824.9,5.00,0.00,29.0,28.1,00.0,38.0,30.9,18.0,0000.0,0003.49,0007.16,0003.17
2022-05-23 18:11:00,,0824.9,4.99,0.00,29.0,28.1,00.0,38.0,30.9,17.5,0000.0,0003.48,0007.15,0003.16
2022-05-23 18:12:00,,0824.9,5.00,0.00,29.0,28.1,00.0,38.0,30.9,17.5,0000.0,0003.48,0007.32,0003.16
2022-05-23 18:13:00,,0825.0,5.00,0.00,29.0,28.1,00.0,38.0,30.9,17.7,0000.0,0003.47,0007.35,0003.14
2022-05-23 18:14:00,,0825.0,5.00,0.00,29.1,28.1,00.0,38.0,30.9,18.1,0000.0,0003.46,0007.44,0003.13
2022-05-23 18:15:00,,0824.9,5.00,0.00,29.1,28.1,00.0,38.0,30.9,18.0,0000.0,0003.46,0007.49,0003.12
2022-05-23 18:16:00,,0824.9,5.00,0.00,29.1,28.1,00.0,38.0,30.9,18.1,0000.0,0003.45,0007.48,0003.10
2022-05-23 18:17:00,,0824.9,5.01,0.00,29.1,28.2,00.0,38.0,30.9,18.0,0000.0,0003.44,0007.48,0003.07
2022-05-23 18:18:00,,0824.9,5.00,0.00,29.1,28.2,00.0,38.0,30.9,17.7,0000.0,0003.40,0006.53,0003.02
2022-05-23 18:19:00,,0824.9,4.99,0.00,29.1,28.1,00.0,38.0,30.9,17.3,0000.0,0003.36,0006.41,0002.97
2022-05-23 18:20:00,,0824.9,5.00,0.00,29.1,28.1,00.0,38.0,30.9,17.2,0000.0,0003.36,0007.07,0002.93
2022-05-23 18:21:00,,0824.9,5.01,0.00,29.1,28.1,00.0,38.0,30.9,17.2,0000.0,0003.33,0006.86,0002.90
2022-05-23 18:22:00,,0825.0,5.01,0.00,29.1,28.1,00.0,38.0,30.9,17.2,0000.0,0003.28,0006.71,0002.84
2022-05-23 18:23:00,,0824.9,5.00,0.00,29.1,28.0,00.0,38.0,30.9,17.5,0000.0,0003.22,0006.36,0002.78
2022-05-23 18:24:00,,0824.9,5.00,0.00,29.1,28.0,00.0,38.0,30.9,17.6,0000.0,0003.20,0006.78,0002.73
2022-05-23 18:25:00,,0824.9,4.99,0.00,29.0,28.0,00.0,38.0,30.8,17.6,0000.0,0003.15,0007.33,0002.68
2022-05-23 18:26:00,,0824.9,5.00,0.00,29.0,28.0,00.0,38.0,30.8,17.9,0000.0,0003.11,0007.22,0002.65
2022-05-23 18:27:00,,0824.9,5.01,0.00,29.0,28.0,00.0,38.0,30.8,17.5,0000.0,0003.12,0007.23,0002.64
2022-05-23 18:28:00,,0824.8,5.00,0.00,29.0,28.0,00.0,38.0,30.8,17.7,0000.0,0003.12,0007.13,0002.63
2022-05-23 18:29:00,,0824.7,5.01,0.00,29.0,28.0,00.0,38.0,30.8,17.7,0000.0,0003.11,0007.28,0002.64
2022-05-23 18:30:00,,0824.7,5.00,0.00,29.0,28.0,00.0,38.0,30.8,17.8,0000.0,0003.10,0007.00,0002.64
2022-05-23 18:31:00,,0824.7,5.00,0.00,29.0,27.9,00.0,38.0,30.8,17.6,0000.0,0003.09,0005.80,0002.63
2022-05-23 18:32:00,,0824.8,5.00,0.00,29.0,27.9,00.0,38.0,30.8,17.6,0000.0,0003.06,0005.60,0002.63
2022-05-23 18:33:00,,0824.8,5.01,0.00,29.0,27.9,00.0,38.0,30.8,17.4,0000.0,0003.09,0005.67,0002.65
2022-05-23 18:34:00,,0824.9,5.01,0.00,29.0,27.9,00.0,38.0,30.8,17.6,0000.0,0003.12,0006.03,0002.66
2022-05-23 18:35:00,,0824.9,5.00,0.00,29.0,27.9,00.0,38.0,30.8,17.4,0000.0,0003.13,0006.18,0002.67
2022-05-23 18:36:00,,0824.9,5.00,0.00,29.0,27.9,00.0,38.0,30.8,17.2,0000.0,0003.18,0005.09,0002.71
2022-05-23 18:37:00,,0824.9,5.00,0.00,29.0,27.9,00.0,38.0,30.8,17.1,0000.0,0003.21,0005.23,0002.75
2022-05-23 18:38:00,,0824.9,5.00,0.00,29.0,27.9,00.0,37.9,30.8,17.2,0000.0,0003.21,0005.54,0002.77
2022-05-23 18:39:00,,0824.9,5.01,0.00,29.0,27.9,00.0,37.9,30.8,17.4,0000.0,0003.20,0006.43,0002.78
2022-05-23 18:40:00,,0824.9,5.01,0.00,29.0,27.9,00.0,37.9,30.8,17.4,0000.0,0003.22,0006.36,0002.81
2022-05-23 18:41:00,,0824.9,4.99,0.00,29.0,27.9,00.0,37.9,30.8,17.5,0000.0,0003.24,0006.37,0002.82
2022-05-23 18:42:00,,0824.9,4.99,0.00,29.0,27.9,00.0,37.9,30.8,17.7,0000.0,0003.26,0006.48,0002.84
2022-05-23 18:43:00,,0824.9,4.99,0.00,29.0,28.0,00.0,37.9,30.8,17.8,0000.0,0003.28,0006.65,0002.85
2022-05-23 18:44:00,,0824.8,5.00,0.00,29.0,28.0,00.0,37.9,30.8,17.8,0000.0,0003.29,0006.67,0002.85
2022-05-23 18:45:00,,0824.8,5.01,0.00,29.0,28.0,00.0,37.9,30.8,17.7,0000.0,0003.31,0006.57,0002.86
2022-05-23 18:46:00,,0824.8,5.00,0.00,29.0,28.0,00.0,38.0,30.8,17.5,0000.0,0003.32,0006.39,0002.87
2022-05-23 18:47:00,,0824.7,5.00,0.00,29.0,28.0,00.0,38.0,30.8,17.2,0000.0,0003.30,0006.30,0002.87
2022-05-23 18:48:00,,0824.8,4.99,0.00,29.0,28.0,00.0,38.0,30.8,17.4,0000.0,0003.28,0006.16,0002.86
2022-05-23 18:49:00,,0824.7,5.01,0.00,29.0,28.0,00.0,38.0,30.8,17.0,0000.0,0003.28,0005.96,0002.87
2022-05-23 18:50:00,,0824.6,5.00,0.00,29.0,28.0,00.0,38.0,30.8,17.1,0000.0,0003.30,0004.91,0002.88
2022-05-23 18:51:00,,0824.8,5.01,0.00,29.0,28.0,00.0,38.0,30.8,17.2,0000.0,0003.29,0005.05,0002.88
2022-05-23 18:52:00,,0824.6,5.00,0.00,29.0,28.0,00.0,38.0,30.8,17.1,0000.0,0003.28,0006.34,0002.90
2022-05-23 18:53:00,,0824.6,5.01,0.00,29.0,28.0,00.0,38.0,30.8,17.6,0000.0,0003.27,0006.22,0002.94
2022-05-23 18:54:00,,0824.6,4.99,0.00,29.0,28.0,00.0,38.0,30.8,16.9,0000.0,0003.27,0006.08,0002.98
2022-05-23 18:55:00,,0824.6,4.99,0.00,29.0,28.0,00.0,38.0,30.8,16.9,0000.0,0003.31,0006.20,0003.03
2022-05-23 18:56:00,,0824.6,5.00,0.00,29.0,27.9,00.0,38.0,30.8,17.7,0000.0,0003.30,0006.05,0003.06
2022-05-23 18:57:00,,0824.7,5.01,0.00,29.0,28.0,00.0,38.0,30.8,17.6,0000.0,0003.30,0006.03,0003.08
2022-05-23 18:58:00,,0824.7,4.99,0.00,29.0,28.0,00.0,38.0,30.8,16.7,0000.0,0003.33,0006.11,0003.12
2022-05-23 18:59:00,,0824.7,5.00,0.00,29.0,28.0,00.0,38.0,30.8,17.0,0000.0,0003.34,0006.14,0003.13
